Tracking 25709 objects as of 24-May-2022
HD Live streaming from Space Station
objects crossing your sky now

ONEWEB-0377

Track ONEWEB-0377 now!
10-day predictions
ONEWEB-0377 is classified as:


NORAD ID: 49303
Int'l Code: 2021-090AA
Perigee: 607.7 km
Apogee: 611.0 km
Inclination: 87.5 °
Period: 96.7 minutes
Semi major axis: 6980 km
RCS: Unknown
Launch date: October 14, 2021
Source: United Kingdom (UK)
Launch site: VOSTOCHNY COSMODROME (VOSTO)
aabbcc
Your satellite tracking list
Your tracking list is empty




NASA's NSSDC Master Catalog

Two Line Element Set (TLE):
1 49303U 21090AA  22143.58334491  .00057344  00000-0  61084-2 0  9994
2 49303  87.5178 219.0215 0002321 121.3882 277.4964 14.88627812  1300
Source of the keplerian elements: AFSPC